DHK052 EGNX-EBBR

Flight info

Callsign DHK052
Flight time N/A
Altitude 29000
Route SAPCO UY53 DTY UM605 BENSU Q70 VABIK/N0430F230 Q70 KOK
Aircraft B77L/H-SDE1E2E3FGHIJ2J3J4J5M1RWXY/LB1D1

Departure

Time 2026-05-06 14:19
Airport East Midlands Airport (EGNX)

Arrival

Time N/A
Airport Brussels Airport (EBBR)
Time Latitude Longitude Altitude Speed Heading
2026-05-06 13:20 52.82750 -1.34867 305 ft 0 kts 178°
2026-05-06 14:10 52.82753 -1.34868 305 ft 3 kts 178°
2026-05-06 14:10 52.82780 -1.34869 304 ft 4 kts 178°
2026-05-06 14:10 52.82804 -1.34870 303 ft 4 kts 186°
2026-05-06 14:11 52.82824 -1.34856 305 ft 4 kts 247°
2026-05-06 14:11 52.82828 -1.34815 303 ft 4 kts 269°
2026-05-06 14:11 52.82828 -1.34798 303 ft 1 kts 268°
2026-05-06 14:15 52.82828 -1.34811 303 ft 8 kts 269°
2026-05-06 14:15 52.82825 -1.34944 307 ft 11 kts 268°
2026-05-06 14:16 52.82823 -1.35066 307 ft 11 kts 268°
2026-05-06 14:16 52.82821 -1.35184 308 ft 10 kts 268°
2026-05-06 14:16 52.82868 -1.35243 310 ft 10 kts 18°
2026-05-06 14:16 52.82894 -1.35139 308 ft 10 kts 88°
2026-05-06 14:17 52.82896 -1.35021 308 ft 10 kts 88°
2026-05-06 14:17 52.82926 -1.34945 313 ft 8 kts 26°
2026-05-06 14:17 52.82984 -1.34935 310 ft 10 kts 359°
2026-05-06 14:17 52.83029 -1.34936 309 ft 9 kts 359°
2026-05-06 14:18 52.83063 -1.34855 309 ft 14 kts 88°
2026-05-06 14:18 52.83069 -1.34462 306 ft 66 kts 88°
2026-05-06 14:18 52.83090 -1.33329 311 ft 129 kts 89°
2026-05-06 14:18 52.83124 -1.31559 382 ft 169 kts 85°
2026-05-06 14:19 52.83074 -1.29623 946 ft 172 kts 91°
2026-05-06 14:19 52.82957 -1.27646 1650 ft 172 kts 91°
2026-05-06 14:19 52.82837 -1.25629 2169 ft 183 kts 92°
2026-05-06 14:19 52.82533 -1.23431 2385 ft 211 kts 111°
2026-05-06 14:20 52.81667 -1.21314 2628 ft 239 kts 128°
2026-05-06 14:20 52.80497 -1.19285 3226 ft 248 kts 131°
2026-05-06 14:20 52.79265 -1.17224 3903 ft 255 kts 130°
2026-05-06 14:20 52.77932 -1.15209 4494 ft 266 kts 147°
2026-05-06 14:21 52.76141 -1.14424 5156 ft 276 kts 183°
2026-05-06 14:21 52.74333 -1.15484 5870 ft 279 kts 220°
2026-05-06 14:21 52.72971 -1.17699 6607 ft 275 kts 227°
2026-05-06 14:21 52.71558 -1.19892 7314 ft 280 kts 223°
2026-05-06 14:22 52.70060 -1.21964 8155 ft 281 kts 221°
2026-05-06 14:22 52.68545 -1.23977 8829 ft 285 kts 221°
2026-05-06 14:22 52.66969 -1.26048 9002 ft 295 kts 221°
2026-05-06 14:22 52.65358 -1.28151 9000 ft 293 kts 220°
2026-05-06 14:23 52.63765 -1.30217 8995 ft 288 kts 220°
2026-05-06 14:23 52.62198 -1.32247 8993 ft 286 kts 220°
2026-05-06 14:23 52.60630 -1.34276 8992 ft 287 kts 220°
2026-05-06 14:23 52.58931 -1.35976 9001 ft 289 kts 203°
2026-05-06 14:24 52.56949 -1.36615 9553 ft 294 kts 181°
2026-05-06 14:24 52.54917 -1.36263 10172 ft 302 kts 167°
2026-05-06 14:24 52.52866 -1.35134 10499 ft 323 kts 159°
2026-05-06 14:24 52.50714 -1.33674 10723 ft 347 kts 157°
2026-05-06 14:25 52.48414 -1.32058 10936 ft 371 kts 157°
2026-05-06 14:25 52.45997 -1.30359 11517 ft 383 kts 157°
2026-05-06 14:25 52.43512 -1.28630 12274 ft 392 kts 158°
2026-05-06 14:25 52.40985 -1.26891 13214 ft 396 kts 158°
2026-05-06 14:26 52.38422 -1.25143 14122 ft 400 kts 158°
2026-05-06 14:26 52.35841 -1.23394 15009 ft 403 kts 159°
2026-05-06 14:26 52.33231 -1.21632 15807 ft 408 kts 159°
2026-05-06 14:26 52.30582 -1.19849 16564 ft 414 kts 159°
2026-05-06 14:27 52.27905 -1.18048 17407 ft 417 kts 159°
2026-05-06 14:27 52.25207 -1.16234 18231 ft 421 kts 159°
2026-05-06 14:27 52.22526 -1.14434 18933 ft 424 kts 159°
2026-05-06 14:27 52.19777 -1.12599 19631 ft 428 kts 160°
2026-05-06 14:28 52.16943 -1.11021 20311 ft 430 kts 166°
2026-05-06 14:28 52.14014 -1.09977 21005 ft 432 kts 171°
2026-05-06 14:28 52.11044 -1.09072 21688 ft 435 kts 171°
2026-05-06 14:28 52.08057 -1.08142 22353 ft 439 kts 171°
2026-05-06 14:29 52.05041 -1.07176 23014 ft 443 kts 171°
2026-05-06 14:29 52.02001 -1.06188 23633 ft 447 kts 171°
2026-05-06 14:29 51.98943 -1.05190 24179 ft 450 kts 171°
2026-05-06 14:29 51.95900 -1.04185 24740 ft 453 kts 171°
2026-05-06 14:30 51.92805 -1.03154 25283 ft 456 kts 171°
2026-05-06 14:30 51.89683 -1.02116 25810 ft 459 kts 171°
2026-05-06 14:30 51.86544 -1.01077 26328 ft 462 kts 171°
2026-05-06 14:30 51.83383 -1.00037 26839 ft 465 kts 171°
2026-05-06 14:31 51.80184 -0.99007 27333 ft 469 kts 171°
2026-05-06 14:31 51.76976 -0.97983 27832 ft 472 kts 171°
2026-05-06 14:31 51.73755 -0.96957 28454 ft 471 kts 171°
2026-05-06 14:31 51.70527 -0.95926 29037 ft 473 kts 171°
2026-05-06 14:32 51.64057 -0.93860 28991 ft 470 kts 170°
2026-05-06 14:32 51.60953 -0.92321 28986 ft 471 kts 155°
2026-05-06 14:32 51.58250 -0.89332 29007 ft 476 kts 137°